Location: Pine Mountain Observatory
(43.7910°N, 120.9377°W)
Time: 09:57:23
(UTC-07:00)

APEX - Visible Passes

Search period start: 29 September 2016 00:00
Search period end: 09 October 2016 00:00
Orbit: 332 x 1228 km, 69.9° (Epoch: 29 September)

Date Brightness Start Highest point End Pass type
(mag) Time Alt. Az. Time Alt. Az. Time Alt. Az.
30 Sep 8.1 06:13:28 10° ESE 06:16:35 13° E 06:19:47 10° ENE visible
03 Oct 7.3 06:11:49 10° SSE 06:17:41 27° E 06:23:54 10° NE visible
04 Oct 7.5 05:39:25 10° SE 05:44:20 19° E 05:49:26 10° NE visible
05 Oct 7.7 05:07:47 10° ESE 05:11:01 13° E 05:14:21 10° ENE visible
06 Oct 6.0 06:11:54 10° S 06:18:57 50° ESE 06:26:23 10° NE visible
07 Oct 6.5 05:38:45 10° SSE 05:45:23 37° ESE 05:52:20 10° NE visible
08 Oct 6.9 05:05:53 10° SSE 05:11:52 27° E 05:18:05 10° NE visible
